Location: B�rgermoos
(47.6500°N, 9.0667°E)
Time: 17:22:22
(UTC+00:00)

Vanguard 1 - Pass Details

Date: 10 August 2021
Orbit: 652 x 3831 km, 34.3° (Epoch: 17 September)

Event Time Altitude Azimuth Distance (km) Brightness Sun altitude
Rises 09:20:21 0° 240° (WSW) 2,987 12.4 48.3°
Reaches altitude 10° 09:23:18 10° 219° (SW) 2,050 11.9 48.6°
Maximum altitude 09:26:14 17° 177° (S) 1,698 12.0 49.0°
Drops below altitude 10° 09:29:29 10° 136° (SE) 2,318 12.9 49.4°
Sets 09:33:08 0° 117° (ESE) 3,580 13.6 49.9°
